| time (UTC) | temp F | wind direction | speed knots | gust knots | rain 1hr in | rain 24hr in | rain mn in | humidity % | barometer mb |
| 20260502195020 | 47 | 332 | 2.6 | 3.5 | 0.00 | 0.00 | 0.00 | 4 | 1013.8 |
| 20260502194019 | 47 | 284 | 2.6 | 3.5 | 0.00 | 0.00 | 0.00 | 4 | 1013.9 |
| 20260502193019 | 48 | 284 | 7.8 | 7.8 | 0.00 | 0.00 | 0.00 | 4 | 1013.9 |
| 20260502192019 | 47 | 302 | 1.7 | 1.7 | 0.00 | 0.00 | 0.00 | 4 | 1014.2 |
| 20260502191018 | 47 | 271 | 3.5 | 3.5 | 0.00 | 0.00 | 0.00 | 4 | 1014.3 |
| 20260502190019 | 47 | 318 | 3.5 | 3.5 | 0.00 | 0.00 | 0.00 | 4 | 1014.3 |
| 20260502185020 | 47 | 17 | 4.3 | 5.2 | 0.00 | 0.00 | 0.00 | 4 | 1014.3 |
| 20260502184019 | 47 | 300 | 5.2 | 7.0 | 0.00 | 0.00 | 0.00 | 4 | 1014.4 |
| 20260502183019 | 46 | 308 | 3.5 | 5.2 | 0.00 | 0.00 | 0.00 | 4 | 1014.4 |
| 20260502182018 | 46 | 288 | 2.6 | 6.1 | 0.00 | 0.00 | 0.00 | 4 | 1014.6 |
| 20260502181021 | 47 | 317 | 2.6 | 3.5 | 0.00 | 0.00 | 0.00 | 4 | 1014.7 |
| 20260502164018 | 45 | 336 | 1.7 | 2.6 | 0.00 | 0.00 | 0.00 | 4 | 1015.2 |
| 20260502163019 | 47 | 0 | 3.5 | 4.3 | 0.00 | 0.00 | 0.00 | 4 | 1015.2 |
| 20260502162018 | 47 | 297 | 4.3 | 5.2 | 0.00 | 0.00 | 0.00 | 5 | 1015.1 |
| 20260502161021 | 46 | 323 | 5.2 | 5.2 | 0.00 | 0.00 | 0.00 | 4 | 1015.2 |
| 20260502152019 | 46 | 296 | 1.7 | 2.6 | 0.00 | 0.01 | 0.00 | 4 | 1015.0 |
| 20260502151018 | 45 | 315 | 2.6 | 4.3 | 0.00 | 0.01 | 0.00 | 5 | 1015.0 |
| 20260502123018 | 39 | 309 | 0.9 | 2.6 | 0.00 | 0.01 | 0.00 | 8 | 1015.1 |
| 20260502122018 | 38 | 292 | 0.9 | 1.7 | 0.00 | 0.01 | 0.00 | 8 | 1015.0 |
| 20260502121020 | 37 | 253 | 2.6 | 2.6 | 0.00 | 0.01 | 0.00 | 8 | 1014.9 |
| 20260502115019 | 35 | 0 | 0.0 | 0.0 | 0.00 | 0.01 | 0.00 | 8 | 1014.9 |
| 20260502114018 | 34 | 0 | 0.0 | 0.0 | 0.00 | 0.01 | 0.00 | 8 | 1014.8 |
| 20260502113018 | 34 | 0 | 0.0 | 0.0 | 0.00 | 0.01 | 0.00 | 8 | 1014.8 |
| 20260502112018 | 34 | 0 | 0.0 | 0.0 | 0.00 | 0.01 | 0.00 | 8 | 1014.7 |
| 20260502111019 | 34 | 0 | 0.0 | 0.0 | 0.00 | 0.01 | 0.00 | 8 | 1014.6 |
| 20260502110019 | 34 | 0 | 0.0 | 0.0 | 0.00 | 0.01 | 0.00 | 8 | 1014.6 |
| 20260502105019 | 35 | 0 | 0.0 | 0.0 | 0.00 | 0.01 | 0.00 | 8 | 1014.5 |
| 20260502104019 | 35 | 0 | 0.0 | 0.0 | 0.00 | 0.01 | 0.00 | 8 | 1014.4 |
| 20260502103019 | 35 | 0 | 0.0 | 0.0 | 0.00 | 0.01 | 0.00 | 8 | 1014.4 |
| 20260502102018 | 35 | 0 | 0.0 | 0.0 | 0.00 | 0.01 | 0.00 | 8 | 1014.3 |
| 20260502101019 | 36 | 128 | 0.9 | 0.9 | 0.00 | 0.01 | 0.00 | 8 | 1014.2 |
| 20260502091019 | 36 | 0 | 0.0 | 0.0 | 0.00 | 0.01 | 0.00 | 8 | 1014.0 |
| 20260502071020 | 37 | 128 | 0.9 | 0.9 | 0.00 | 0.01 | 0.00 | 8 | 1013.7 |
| 20260502070019 | 37 | 0 | 0.0 | 0.0 | 0.00 | 0.01 | 0.00 | 8 | 1013.7 |
| 20260502065018 | 37 | 128 | 0.9 | 0.9 | 0.00 | 0.01 | 0.00 | 8 | 1013.7 |
| 20260502064019 | 38 | 128 | 0.9 | 1.7 | 0.00 | 0.01 | 0.00 | 8 | 1013.9 |
| 20260502063019 | 38 | 128 | 2.6 | 2.6 | 0.00 | 0.01 | 0.00 | 8 | 1013.9 |
| 20260502062019 | 38 | 0 | 0.0 | 0.0 | 0.00 | 0.01 | 0.00 | 8 | 1014.0 |
| 20260502061021 | 38 | 0 | 0.0 | 0.9 | 0.00 | 0.01 | 0.00 | 7 | 1014.2 |
| 20260502060019 | 38 | 128 | 0.9 | 0.9 | 0.00 | 0.01 | 0.00 | 7 | 1014.2 |
| 20260502055019 | 38 | 128 | 0.9 | 1.7 | 0.00 | 0.01 | 0.00 | 7 | 1014.2 |
| 20260502054019 | 38 | 107 | 0.9 | 1.7 | 0.00 | 0.01 | 0.00 | 7 | 1014.2 |
| 20260502053019 | 39 | 107 | 3.5 | 3.5 | 0.00 | 0.01 | 0.00 | 7 | 1014.2 |
| 20260502052020 | 39 | 92 | 4.3 | 4.3 | 0.00 | 0.01 | 0.00 | 7 | 1014.1 |
| 20260502051020 | 39 | 115 | 6.1 | 7.0 | 0.00 | 0.01 | 0.00 | 7 | 1014.1 |
| 20260502050019 | 39 | 95 | 1.7 | 1.7 | 0.00 | 0.01 | 0.00 | 7 | 1014.1 |
| 20260502045022 | 39 | 97 | 4.3 | 4.3 | 0.00 | 0.01 | 0.00 | 7 | 1014.0 |
| 20260502044018 | 40 | 61 | 3.5 | 4.3 | 0.00 | 0.01 | 0.00 | 7 | 1013.8 |
| 20260502043019 | 40 | 67 | 0.9 | 2.6 | 0.00 | 0.01 | 0.00 | 7 | 1013.8 |
| 20260502042019 | 40 | 42 | 2.6 | 3.5 | 0.00 | 0.01 | 0.00 | 7 | 1013.6 |
| 20260502041022 | 41 | 29 | 5.2 | 5.2 | 0.00 | 0.01 | 0.00 | 7 | 1013.5 |
| 20260502040018 | 42 | 92 | 2.6 | 4.3 | 0.00 | 0.01 | 0.00 | 6 | 1013.5 |
| 20260502035020 | 42 | 82 | 4.3 | 5.2 | 0.00 | 0.01 | 0.01 | 6 | 1013.1 |
| 20260502034019 | 43 | 324 | 2.6 | 3.5 | 0.00 | 0.01 | 0.01 | 6 | 1013.1 |
| 20260502033020 | 43 | 304 | 1.7 | 1.7 | 0.00 | 0.01 | 0.01 | 6 | 1013.1 |
| 20260502032018 | 43 | 307 | 2.6 | 2.6 | 0.00 | 0.01 | 0.01 | 6 | 1013.1 |
| 20260502031020 | 43 | 0 | 0.0 | 0.0 | 0.00 | 0.01 | 0.01 | 6 | 1013.1 |
| 20260502030019 | 43 | 9 | 5.2 | 6.1 | 0.00 | 0.01 | 0.01 | 6 | 1013.1 |
| 20260502025019 | 43 | 25 | 3.5 | 4.3 | 0.00 | 0.01 | 0.01 | 6 | 1013.0 |
| 20260502024018 | 43 | 319 | 4.3 | 6.1 | 0.00 | 0.01 | 0.01 | 6 | 1013.1 |
| 20260502023020 | 44 | 319 | 3.5 | 4.3 | 0.00 | 0.01 | 0.01 | 6 | 1013.1 |
| 20260502022020 | 44 | 317 | 1.7 | 3.5 | 0.00 | 0.01 | 0.01 | 6 | 1013.0 |
| 20260502021020 | 44 | 292 | 2.6 | 3.5 | 0.00 | 0.01 | 0.01 | 6 | 1012.8 |
| 20260502020018 | 44 | 342 | 3.5 | 5.2 | 0.00 | 0.01 | 0.01 | 6 | 1012.8 |
| 20260502015020 | 44 | 323 | 3.5 | 3.5 | 0.00 | 0.01 | 0.01 | 6 | 1012.6 |
| 20260502014019 | 44 | 343 | 4.3 | 4.3 | 0.00 | 0.01 | 0.01 | 6 | 1012.6 |
| 20260502013019 | 44 | 323 | 0.9 | 1.7 | 0.00 | 0.01 | 0.01 | 6 | 1012.6 |
| 20260502012021 | 44 | 280 | 0.9 | 0.9 | 0.00 | 0.01 | 0.01 | 6 | 1012.5 |
| 20260502011020 | 44 | 335 | 3.5 | 4.3 | 0.00 | 0.01 | 0.01 | 6 | 1012.4 |
| 20260502010019 | 44 | 328 | 3.5 | 3.5 | 0.00 | 0.01 | 0.01 | 6 | 1012.4 |
| 20260502005019 | 44 | 295 | 2.6 | 2.6 | 0.00 | 0.01 | 0.01 | 6 | 1012.3 |
| 20260502004018 | 44 | 315 | 0.9 | 1.7 | 0.00 | 0.01 | 0.01 | 6 | 1012.2 |
| 20260502003020 | 44 | 340 | 3.5 | 5.2 | 0.00 | 0.01 | 0.01 | 6 | 1012.2 |
| 20260502002020 | 45 | 311 | 2.6 | 3.5 | 0.00 | 0.01 | 0.01 | 6 | 1012.1 |
| 20260502001020 | 45 | 333 | 0.9 | 0.9 | 0.00 | 0.01 | 0.01 | 6 | 1011.9 |
| 20260502000018 | 45 | 313 | 1.7 | 2.6 | 0.00 | 0.01 | 0.01 | 6 | 1011.9 |
| 20260501235021 | 45 | 324 | 4.3 | 4.3 | 0.00 | 0.01 | 0.01 | 6 | 1011.8 |
| 20260501234020 | 45 | 294 | 2.6 | 3.5 | 0.00 | 0.01 | 0.01 | 6 | 1011.6 |
| 20260501233021 | 45 | 312 | 2.6 | 6.1 | 0.00 | 0.01 | 0.01 | 6 | 1011.6 |
| 20260501232020 | 46 | 284 | 1.7 | 4.3 | 0.00 | 0.01 | 0.01 | 5 | 1011.5 |
| 20260501231019 | 46 | 339 | 7.8 | 9.6 | 0.00 | 0.01 | 0.01 | 5 | 1011.5 |
| 20260501230020 | 46 | 339 | 5.2 | 5.2 | 0.00 | 0.01 | 0.01 | 5 | 1011.5 |
| 20260501225019 | 47 | 323 | 5.2 | 5.2 | 0.00 | 0.01 | 0.01 | 5 | 1011.5 |
| 20260501224020 | 47 | 14 | 7.0 | 7.0 | 0.00 | 0.01 | 0.01 | 5 | 1011.5 |
| 20260501223019 | 47 | 317 | 4.3 | 7.0 | 0.00 | 0.01 | 0.01 | 5 | 1011.5 |
| 20260501222018 | 47 | 283 | 5.2 | 5.2 | 0.00 | 0.01 | 0.01 | 5 | 1011.3 |
| 20260501221021 | 48 | 322 | 6.1 | 7.0 | 0.00 | 0.01 | 0.01 | 5 | 1011.2 |
| 20260501220018 | 48 | 274 | 1.7 | 2.6 | 0.00 | 0.01 | 0.01 | 5 | 1011.2 |
| 20260501215020 | 48 | 330 | 4.3 | 5.2 | 0.00 | 0.01 | 0.01 | 5 | 1011.1 |
| 20260501214020 | 47 | 346 | 4.3 | 6.1 | 0.00 | 0.01 | 0.01 | 5 | 1010.9 |
| 20260501213020 | 48 | 279 | 3.5 | 3.5 | 0.00 | 0.01 | 0.01 | 5 | 1010.9 |
| 20260501212019 | 48 | 323 | 3.5 | 6.1 | 0.00 | 0.01 | 0.01 | 5 | 1010.9 |
| 20260501211021 | 49 | 0 | 3.5 | 5.2 | 0.00 | 0.01 | 0.01 | 5 | 1010.7 |
| 20260501210021 | 49 | 292 | 3.5 | 3.5 | 0.00 | 0.01 | 0.01 | 5 | 1010.7 |
| 20260501205021 | 48 | 341 | 1.7 | 2.6 | 0.00 | 0.01 | 0.01 | 5 | 1010.8 |
| 20260501204018 | 48 | 0 | 7.0 | 7.0 | 0.00 | 0.01 | 0.01 | 5 | 1010.7 |
| 20260501203021 | 48 | 328 | 4.3 | 4.3 | 0.00 | 0.01 | 0.01 | 5 | 1010.7 |
| 20260501202020 | 49 | 351 | 4.3 | 5.2 | 0.00 | 0.01 | 0.01 | 5 | 1010.5 |
| 20260501201021 | 50 | 355 | 7.8 | 9.6 | 0.00 | 0.01 | 0.01 | 5 | 1010.3 |
| 20260501200019 | 51 | 335 | 3.5 | 4.3 | 0.00 | 0.01 | 0.01 | 5 | 1010.3 |